Location: Agadir Mansour Mhndou
(31.2424°N, 8.7730°W)
Time: 20:00:40
(UTC+00:00)

Milstar 3 Cent rocket - Pass Details

Date: 16 October 2021
Orbit: 706 x 5147 km, 28.3° (Epoch: 07 December)

Event Time Altitude Azimuth Distance (km) Brightness Sun altitude
Rises 19:08:45 0° 209° (SSW) 3,595 5.9 -15.0°
Reaches altitude 10° 19:11:16 10° 196° (SSW) 2,940 5.2 -15.5°
Maximum altitude 19:17:18 28° 139° (SE) 2,631 4.4 -16.8°
Enters shadow 19:21:52 21° 105° (ESE) 3,574 4.8 -17.8°
